Location: Fairmont
(43.6520°N, 94.4610°W)
Time: 02:01:05
(UTC-05:00)

Daily predictions for brighter satellites

Satellite Brightness Start Highest point End
(mag) Time Altitude Azimuth Time Altitude Azimuth Time Altitude Azimuth
ATLAS 2AS CENTAUR R/B 4.5 02:17:04 29° ENE 02:17:04 29° ENE 02:21:02 10° NE
SL-16 R/B 4.2 02:49:20 28° NE 02:49:20 28° NE 02:53:30 10° N
Cosmos 2219 Rocket 3.9 03:23:09 10° N 03:28:04 29° NE 03:32:58 10° ESE
CZ-2D R/B 3.9 03:26:25 10° NNE 03:29:18 27° NE 03:29:18 27° NE
Lacrosse 5 rocket 3.7 03:57:30 25° NE 03:57:30 25° NE 03:59:23 10° NE
BREEZE-M DEB (TANK) 3.8 04:00:32 64° NNE 04:00:42 65° NNE 04:11:28 10° ESE
Resurs 1-4 Rocket 3.1 03:55:26 10° NNE 03:59:05 44° NNE 03:59:05 44° NNE
Nadezhda 3 Rocket 4.4 04:05:58 55° N 04:05:58 55° N 04:10:47 10° N
ATLAS 2AS CENTAUR R/B 3.4 04:04:31 50° NW 04:04:31 50° NW 04:12:23 10° NNE
Cosmos 2333 Rocket 3.3 03:59:28 10° NNW 04:04:54 42° ENE 04:10:16 10° SE
Cosmos 968 Rocket 4.2 04:17:06 49° NNE 04:17:06 49° NNE 04:20:50 10° NNE
Meteor 2-16 Rocket 4.5 04:11:51 10° N 04:17:29 75° N 04:17:29 75° N
IRS-1D 4.4 04:14:32 10° N 04:18:08 43° N 04:18:08 43° N
SL-16 R/B 3.6 04:34:26 30° NW 04:34:26 30° NW 04:37:39 10° NNW
Cosmos 2237 Rocket 2.8 04:26:52 10° NNW 04:32:25 55° ENE 04:37:55 10° SE
NOSS 3-2 (A) 4.0 04:25:04 10° NW 04:32:33 80° NE 04:40:37 10° SE
ATLAS 5 CENTAUR R/B 2.7 04:36:14 10° NNW 04:42:10 65° NE 04:48:33 10° SE
SL-24 R/B 4.3 04:42:35 86° ESE 04:42:38 86° E 04:47:31 10° N
Cosmos 1980 3.8 04:40:15 10° NNW 04:45:57 75° ENE 04:51:38 10° SSE
Cosmos 2219 3.7 04:47:13 44° NW 04:47:13 44° NW 04:52:04 10° NNE
RESURS DK-1 4.0 04:46:26 26° SE 04:47:29 29° ESE 04:51:06 10° NE
Cosmos 1821 Rocket 4.2 04:44:04 10° NNW 04:49:37 50° WNW 04:49:37 50° WNW
Gbstr 26 Del rocket 4.3 04:48:24 48° W 04:50:28 66° SW 04:58:27 10° SE
SL-16 R/B 3.7 04:45:54 10° N 04:51:08 36° NE 04:56:21 10° ESE
Cosmos 2084 4.0 04:53:15 45° NNE 04:53:15 45° NNE 04:56:00 10° NE
Cosmos 1934 Rocket 4.0 04:48:00 10° NNW 04:54:10 58° W 04:54:45 56° WSW
Cosmos 1605 Rocket 3.8 04:49:10 10° N 04:55:19 81° W 05:01:31 10° S
NOSS 0 Rocket 3.8 04:51:17 10° NNW 04:57:31 75° WSW 05:03:43 10° SSE
CZ-4C R/B 4.2 05:03:02 21° SSW 05:03:02 21° SSW 05:05:48 10° S
Cosmos 1743 3.1 04:55:22 10° N 04:58:36 58° NNE 04:58:36 58° NNE
ADEOS II 3.7 04:55:03 10° NNE 04:59:46 32° E 05:04:27 10° SSE
Cosmos 1777 Rocket 3.9 05:02:13 62° WSW 05:02:44 66° WNW 05:07:59 10° NNE
Cosmos 2227 Rocket 2.2 05:03:27 36° SSW 05:05:51 79° ESE 05:11:33 10° NNE
ARIANE 5 R/B 3.9 05:02:30 10° N 05:05:29 23° NW 05:05:29 23° NW
NOSS 3-2 (C) 3.9 05:02:22 10° NW 05:09:52 80° WSW 05:17:57 10° SSE
Lacrosse 5 2.0 05:08:52 45° SSW 05:10:20 68° SE 05:15:23 10° NE
CZ-2D R/B 3.1 05:06:44 10° N 05:10:37 29° NW 05:10:37 29° NW
CENTAUR R/B 4.1 05:04:04 10° NNW 05:11:24 45° NE 05:19:13 10° ESE
PSLV R/B 3.8 05:07:46 10° N 05:11:52 68° WNW 05:11:53 68° WNW
Cosmos 2219 Rocket 2.3 05:06:48 10° NW 05:12:15 48° WSW 05:17:40 10° S
Okean O Rocket 1.5 05:10:49 10° N 05:15:12 70° WNW 05:16:00 55° SW
Cosmos 2297 Rocket 2.4 05:11:41 22° S 05:15:25 69° ESE 05:21:04 10° NNE
Cosmos 1025 Rocket 3.0 05:13:42 31° S 05:15:44 81° E 05:20:04 10° N
ADEOS Rocket 3.6 05:09:35 10° NNE 05:16:52 70° ESE 05:23:22 10° S
Cosmos 2112 Rocket 3.9 05:14:36 10° NNW 05:19:56 81° WSW 05:25:11 10° SSE
CZ-2C R/B 3.7 05:21:17 28° SSW 05:23:25 53° W 05:27:58 10° NNW
CZ-4B R/B 3.0 05:20:12 10° N 05:24:34 76° WNW 05:26:45 30° SSW
Tiangong 1 1.7 05:25:06 44° SSE 05:25:06 44° SSE 05:27:48 10° E
Cosmos 1680 Rocket 3.4 05:19:39 10° NNW 05:24:53 63° WSW 05:30:04 10° S
Cosmos 1606 Rocket 3.4 05:21:11 10° N 05:25:35 90° WNW 05:29:56 10° S
Cosmos 2061 Rocket 4.3 05:19:39 10° N 05:25:57 71° E 05:32:17 10° SSE
Cosmos 292 Rocket 3.9 05:22:30 10° NNW 05:27:24 75° ENE 05:32:15 10° SSE
CZ-4B DEB 4.1 05:21:54 10° NNE 05:27:24 81° WNW 05:32:17 13° SSW
MOZ.5/SAFIR/RUBIN 5/SL-8 4.3 05:29:50 36° W 05:29:50 36° W 05:33:53 10° NNW
Cosmos 2344 4.0 05:26:43 29° WSW 05:30:48 54° NW 05:39:46 10° NE
Cosmos 1802 Rocket 4.3 05:25:06 10° N 05:31:17 68° E 05:37:23 10° SSE
Cosmos 2100 Rocket 4.0 05:26:08 10° N 05:32:23 86° E 05:38:41 10° S
Meteor 1-15 Rocket 4.4 05:27:20 10° N 05:32:55 73° ENE 05:38:31 10° SSE
Delta 2 Rocket 4.5 05:34:00 24° S 05:34:18 24° S 05:37:13 10° SE
NOSS 3-4 (A) 3.5 05:31:05 28° SW 05:34:35 68° NW 05:41:10 10° NNE
Lacrosse 5 rocket 3.1 05:33:14 20° NW 05:34:38 24° NNW 05:38:16 10° NNE
NOSS 3-4 (C) 3.5 05:31:09 28° SW 05:34:41 68° NW 05:41:16 10° NNE
PAYLOAD B 4.2 05:30:50 10° N 05:36:16 61° WNW 05:40:28 17° SSW
Cosmos 1726 Rocket 3.4 05:32:36 10° N 05:37:02 81° W 05:41:23 10° S
IRS-1C Rocket 4.4 05:34:45 10° N 05:39:48 46° WNW 05:42:40 24° SW
Resurs 1-4 Rocket 3.6 05:36:35 10° NNW 05:40:03 18° WNW 05:40:09 18° WNW
Meteor 1-31 Rocket 4.4 05:36:41 10° NNE 05:40:19 36° E 05:43:56 10° SSE
Okean 2 3.4 05:36:38 10° S 05:40:48 87° E 05:44:58 10° N
Okean 1-7 Rocket 4.4 05:41:43 29° W 05:41:59 29° WNW 05:45:51 10° NNW
Cosmos 2298 Rocket 4.4 05:38:47 10° S 05:44:01 68° ESE 05:49:19 10° NNE
BREEZE-M DEB (TANK) 4.0 05:26:51 10° WNW 05:44:52 82° NNE 05:49:10 10° ESE
Cosmos 2082 3.8 05:41:46 23° SW 05:45:12 56° WNW 05:50:45 10° NNE
Aureole 2 Rocket 3.3 05:44:17 10° NNW 05:47:48 51° ENE 05:50:58 10° SE
USA 129 3.3 05:46:31 10° SE 05:48:21 32° ENE 05:50:04 10° N
Cosmos 1892 Rocket 3.5 05:43:59 10° SSW 05:48:26 73° W 05:52:57 10° N
Cosmos 2333 Rocket 2.9 05:44:03 10° NW 05:49:00 31° WSW 05:53:54 10° SSW
Thor Agena Rocket 3.7 05:46:47 10° S 05:51:56 53° W 05:57:08 10° NNW
Cosmos 220 Rocket 4.4 05:52:28 25° WSW 05:54:27 41° WNW 05:58:28 10° N
PSLV R/B 3.5 05:51:42 10° N 05:56:02 63° WNW 06:00:15 10° SSW
Cosmos 2150 Rocket 4.1 05:53:47 10° SSW 05:58:55 79° ESE 06:04:05 10° NNE
BREEZE-M DEB (TANK) 1.9 06:01:55 13° NW 06:04:11 70° NNE 06:07:27 10° ESE
Cosmos 2098 Rocket 2.9 06:02:06 10° N 06:05:48 87° W 06:10:30 10° S
Cosmos 2016 Rocket 4.0 06:03:05 10° N 06:09:26 75° W 06:15:41 10° S
Cosmos 1666 3.4 06:05:57 10° NNW 06:09:26 32° W 06:12:53 10° SSW
COS B Rocket 3.6 06:10:29 19° WNW 06:10:29 19° WNW 06:11:54 10° NNW
Ariane Rocket 4.5 06:05:24 10° NNE 06:10:14 41° E 06:15:02 10° SSE
CZ-4B R/B 3.9 06:06:22 10° N 06:11:07 33° WNW 06:15:56 10° SW
Cosmos 2228 3.0 06:07:40 10° NNW 06:12:02 62° W 06:16:21 10° S
Cosmos 2173 Rocket 4.1 06:09:26 10° NNW 06:15:15 48° W 06:21:05 10° SSW
Cosmos 2237 Rocket 3.2 06:11:46 10° NW 06:16:03 23° W 06:20:18 10° SSW
SL-08 R/B 4.5 06:10:19 10° N 06:16:33 79° W 06:22:51 10° S
DELTA 2 R/B (1) 4.3 06:11:43 12° SW 06:16:37 46° SSE 06:21:56 10° E
Okean-O 2.9 06:12:23 10° N 06:16:41 49° WNW 06:20:57 10° SW
SeaSat 1 3.8 06:12:14 10° SE 06:16:51 42° NE 06:21:30 10° NNW
Meteor 2-4 Rocket 4.2 06:11:43 10° SW 06:17:13 42° WNW 06:22:49 10° N
OTV 4 2.7 06:18:47 10° SSW 06:19:15 10° SSW 06:19:42 10° SSW
Cosmos 1174 4.3 06:17:33 10° NNW 06:20:28 45° NE 06:23:34 10° SE
Cosmos 1459 Rocket 4.4 06:18:46 10° NNW 06:24:40 41° W 06:30:30 10° SSW
Cosmos 2058 Rocket 3.7 06:21:23 10° NNW 06:25:15 31° W 06:29:05 10° SSW
RESURS DK-1 3.5 06:22:24 12° WSW 06:25:32 27° NW 06:29:06 10° N
Cosmos 1340 4.4 06:22:59 10° SSE 06:26:30 38° E 06:30:03 10° NNE
ATLAS 5 CENTAUR R/B 3.3 06:21:36 10° WNW 06:26:36 26° WSW 06:31:50 10° SSW
Cosmos 2123 Rocket 4.0 06:20:57 10° S 06:27:08 83° W 06:33:21 10° N
Radarsat Rocket 4.5 06:20:21 10° NNE 06:27:16 75° ESE 06:33:24 10° S
Cosmos 1898 Rocket 3.8 06:27:41 10° SW 06:32:50 50° WNW 06:38:00 10° N
MOS 1 Rocket 3.5 06:29:49 10° N 06:34:26 55° WNW 06:39:19 10° SSW
SL-16 R/B 2.7 06:30:05 10° NW 06:35:13 36° WSW 06:40:20 10° S
Cosmos 1346 Rocket 4.2 06:33:28 10° WSW 06:36:23 20° WNW 06:39:21 10° NNW
COBE Rocket 4.0 06:31:43 10° N 06:36:25 52° WNW 06:40:57 10° SSW
USA 102 3.4 06:36:53 10° SE 06:38:11 43° ENE 06:40:46 10° NNW
ADEOS II 2.8 06:34:46 10° N 06:39:28 34° WNW 06:44:10 10° SW
Meteor 2-17 Rocket 4.5 06:34:05 10° N 06:40:14 82° W 06:46:23 10° S
COSMO-SKYMED 1 2.5 06:36:00 10° S 06:40:20 77° WSW 06:44:42 10° NNW
Cosmos 1066 Rocket 4.5 06:39:28 10° S 06:45:04 80° E 06:50:52 10° NNE
NOAA 6 4.1 06:40:45 10° N 06:45:54 64° WNW 06:51:01 10° SSW
